星链-32442 (STARLINK-32442)

导读

STARLINK-32442是美国SpaceX公司星链(Starlink)卫星互联网项目中的一颗低轨通信卫星,国际标识为2024-196Y,于2024年10月30日发射,目前运行在近地轨道。它采用Starlink V1.0平台,运行高度约475公里,倾角53.16度,旨在为全球提供高速低延迟宽带互联网服务,尤其覆盖偏远地区,助力缩小数字鸿沟,是星链全球星座组网的重要组成部分,也可为军事、航空等领域提供通信支持。

基本信息
目录编号:
61729
目录名称:
STARLINK-32442
国际标识:
2024-196Y
轨道中心:
EARTH
卫星名称:
星链-32442
卫星全名:
星链-32442 (STARLINK-32442)
卫星状态:
在轨 (已飞行682 天)
发射日期:
2024-10-30 UTC
国别 :
美国 (US)
星等 :
--
该卫星已列入 空间交会检测服务 Space Conjunction Data Service (SCDS) ,当前飞行风险评估等级: 高风险
轨道信息
数据来源 国际轨道数据 AOE轨道数据
星历时间 2026-09-11T18:46:31+0800
16小时前
查看轨道信息
2026-09-10T08:00:00+0800
2天前
查看轨道信息
半长轴 6840.87km 6840.878km
偏心率 0.0001261 0.0001232
轨道倾角 53.160° 53.160°
近地点辐角 89.046° 75.578°
升交点赤经 315.919° 322.696°
平近点角 271.069° 196.232°
近地点 461.87km 461.898km
远地点 463.596km 463.584km
周期 93.848分钟 93.849分钟
每日圈数 15.343901 15.343876
详细信息
固有亮度:
5
最大亮度:
2.5
卫星平台:
Starlink V1.0
覆盖范围:
全球
运营商:
太空探索技术公司
运营商所在国:
美国
制造商(研发单位):
太空探索技术公司
制造商所在国:
美国
使用方式:
暂无
卫星简介
Starlink 计划是 SpaceX 推出的全球卫星互联网项目,通过发射低轨道卫星,为全球尤其是偏远地区提供高速、低延迟的互联网服务。自 2019 年起,Starlink 已部署数千颗卫星,旨在缩小全球数字鸿沟,推动互联网普及。该项目还为军事、航空等行业提供通信支持,带来广泛经济效益。
2D轨道图
3D轨道图
轨道高度分析图
轨道倾角分析图
轨道综合分析图
查看轨道综合分析图
与全量物体交会距离演化趋势
与全量物体交会风险概率演化趋势